This demonstration page uses our WeatherBlox Daily Observations layout. Learn more.

Left ArrowRight Arrow

40.92945, -100.16068

Hourly Observations for April 5, 2019

Temp ( °F °C ) Dew Point ( °F °C ) Humidity (%) Winds ( mph kmh ) Pressure ( in mb ) Visibility ( mi km ) Precip ( " mm )
12:15 am 00:15 Clear 47 8.5 42 5.4 81 81 E 7 11 30.02 1016 10 16 0.00 0.00
12:35 am 00:35 Partly Cloudy 47 8.1 42 5.5 84 84 SE 6 9 30.02 1017 10 16 0.00 0.00
12:55 am 00:55 Mostly Cloudy 47 8.3 42 5.6 83 83 SE 6 9 30.02 1016 10 16 0.00 0.00
1:15 am 01:15 Mostly Cloudy 46 8 42 5.5 84 84 SE 5 7 30.02 1017 10 16 0.00 0.00
1:35 am 01:35 Partly Cloudy 45 7.4 41 5 85 85 SE 7 11 30.02 1016 10 16 0.00 0.00
1:55 am 01:55 Clear 45 7.4 41 5.1 86 86 ESE 6 9 30.02 1016 10 16 0.00 0.00
2:15 am 02:15 Partly Cloudy 44 6.7 40 4.5 86 86 ESE 5 7 30.02 1017 10 16 0.00 0.00
2:35 am 02:35 Partly Cloudy 44 6.6 41 4.8 88 88 E 6 9 30.02 1017 10 16 0.00 0.00
2:55 am 02:55 Partly Cloudy 43 6.2 40 4.4 88 88 ESE 3 6 30.02 1016 10 16 0.00 0.00
3:15 am 03:15 Clear 43 6.3 40 4.6 89 89 ESE 3 6 30.01 1016 10 16 0.00 0.00
3:35 am 03:35 Clear 43 6 40 4.2 88 88 ESE 3 6 30.01 1016 10 16 0.00 0.00
3:55 am 03:55 Partly Cloudy 43 6 40 4.2 88 88 Calm 30.01 1016 7 11 0.00 0.00
4:15 am 04:15 Partly Cloudy 42 5.3 39 3.9 91 91 E 3 6 30.01 1016 7 11 0.00 0.00
4:35 am 04:35 Clear 43 6 40 4.5 90 90 ESE 3 6 29.99 1016 7 11 0.00 0.00
4:55 am 04:55 Clear 43 6.1 40 4.7 91 91 SE 5 7 29.99 1015 7 11 0.00 0.00
5:15 am 05:15 Clear 44 6.4 40 4.7 89 89 SE 5 7 29.99 1016 7 11 0.00 0.00
5:35 am 05:35 Clear 42 5.5 39 3.8 89 89 Calm 30.00 1016 7 11 0.00 0.00
5:55 am 05:55 Clear with Mist and Fog 40 4.4 38 3.2 92 92 ENE 3 6 30.01 1016 4 6 0.00 0.00
6:15 am 06:15 Partly Cloudy with Mist and Fog 40 4.2 38 3.1 93 93 E 5 7 30.02 1016 3 5 0.00 0.00
6:35 am 06:35 Mostly Cloudy with Mist and Fog 41 5 39 4 93 93 SE 3 6 30.01 1016 4 6 0.00 0.00
6:55 am 06:55 Mostly Cloudy 41 5.2 39 4.1 93 93 SSE 3 6 30.01 1016 7 11 0.00 0.00
7:15 am 07:15 Mostly Cloudy with Mist and Fog 42 5.5 40 4.2 91 91 S 5 7 30.01 1016 5 8 0.00 0.00
7:35 am 07:35 Cloudy 46 7.7 44 6.7 93 93 S 6 9 29.99 1016 7 11 0.00 0.00
7:55 am 07:55 Cloudy 46 8 44 6.6 91 91 S 3 6 29.99 1016 7 11 0.00 0.00
8:15 am 08:15 Cloudy 49 9.4 45 7.2 86 86 Calm 29.98 1015 10 16 0.00 0.00
8:35 am 08:35 Cloudy 48 8.8 43 6.2 84 84 Calm 29.98 1015 7 11 0.00 0.00
8:55 am 08:55 Cloudy 49 9.3 46 7.5 89 89 ENE 3 6 29.97 1015 7 11 0.00 0.00
9:15 am 09:15 Cloudy 50 10.1 46 7.9 86 86 E 3 6 29.96 1015 10 16 0.00 0.00
9:35 am 09:35 Mostly Cloudy 51 10.7 47 8.1 84 84 ESE 6 9 29.94 1014 10 16 0.00 0.00
9:55 am 09:55 Partly Cloudy 55 12.5 48 8.7 78 78 SE 5 7 29.93 1013 10 16 0.00 0.00
10:15 am 10:15 Sunny 57 13.8 49 9.5 75 75 S 3 6 29.91 1013 10 16 0.00 0.00
10:35 am 10:35 Sunny 62 16.4 51 10.4 68 68 SSW 13 20 29.88 1012 10 16 0.00 0.00
10:55 am 10:55 Sunny 63 17.2 51 10.4 64 64 S 10 17 29.87 1011 10 16 0.00 0.00
11:15 am 11:15 Sunny 64 17.5 50 9.9 61 61 SSW 14 22 29.86 1011 10 16 0.00 0.00
11:35 am 11:35 Sunny 65 18.4 50 9.8 57 57 S 12 19 29.86 1011 10 16 0.00 0.00
11:55 am 11:55 Sunny 67 19.2 49 9.2 53 53 SSW 12 19 29.84 1010 10 16 0.00 0.00
12:15 pm 12:15 Sunny 66 19 49 9.5 54 54 S 13 20 29.83 1010 10 16 0.00 0.00
12:35 pm 12:35 Sunny 68 20.1 50 10.1 53 53 S 13 20 29.82 1010 10 16 0.00 0.00
12:55 pm 12:55 Sunny 70 21 50 10.1 50 50 S 16 26 29.79 1009 10 16 0.00 0.00
1:15 pm 13:15 Sunny 72 22.1 51 10.7 49 49 S 16 26 29.77 1008 10 16 0.00 0.00
1:35 pm 13:35 Sunny 74 23.6 48 9 40 40 S 24 39 29.74 1007 10 16 0.00 0.00
1:55 pm 13:55 Sunny 74 23.5 48 8.8 39 39 S 24 39 29.73 1007 10 16 0.00 0.00
2:15 pm 14:15 Sunny 74 23.6 48 8.8 39 39 S 21 33 29.73 1007 10 16 0.00 0.00
2:35 pm 14:35 Partly Cloudy 74 23.6 48 8.7 39 39 S 21 33 29.72 1007 10 16 0.00 0.00
2:55 pm 14:55 Partly Cloudy 75 24 47 8.4 37 37 SSE 22 35 29.70 1006 10 16 0.00 0.00
3:15 pm 15:15 Partly Cloudy 76 24.3 47 8.5 37 37 S 22 35 29.70 1006 10 16 0.00 0.00
3:35 pm 15:35 Partly Cloudy 76 24.2 48 9 38 38 S 22 35 29.68 1005 10 16 0.00 0.00
3:55 pm 15:55 Partly Cloudy 75 24.1 48 9 38 38 S 22 35 29.67 1005 10 16 0.00 0.00
4:15 pm 16:15 Mostly Cloudy 76 24.3 47 8.5 37 37 S 29 46 29.66 1004 10 16 0.00 0.00
4:35 pm 16:35 Partly Cloudy 77 24.9 46 7.8 34 34 SSW 24 39 29.65 1004 10 16 0.00 0.00
4:55 pm 16:55 Partly Cloudy 77 25.2 47 8.4 34 34 S 25 41 29.64 1004 10 16 0.00 0.00
5:15 pm 17:15 Partly Cloudy 77 24.9 47 8.6 36 36 S 21 33 29.63 1003 10 16 0.00 0.00
5:35 pm 17:35 Partly Cloudy 77 25 47 8.2 34 34 S 23 37 29.63 1003 10 16 0.00 0.00
5:55 pm 17:55 Partly Cloudy 77 25.2 47 8.6 35 35 S 18 30 29.63 1003 10 16 0.00 0.00
6:15 pm 18:15 Partly Cloudy 76 24.5 48 8.8 37 37 S 22 35 29.63 1003 10 16 0.00 0.00
6:35 pm 18:35 Partly Cloudy 76 24.3 49 9.5 39 39 S 22 35 29.63 1003 10 16 0.00 0.00
6:55 pm 18:55 Sunny 76 24.3 49 9.3 39 39 S 21 33 29.64 1004 10 16 0.00 0.00
7:15 pm 19:15 Partly Cloudy 74 23.3 49 9.2 41 41 SSE 17 28 29.65 1004 10 16 0.00 0.00
7:35 pm 19:35 Mostly Cloudy 72 22.2 49 9.4 44 44 SSE 14 22 29.65 1004 10 16 0.00 0.00
7:55 pm 19:55 Mostly Cloudy 71 21.9 49 9.5 45 45 SSE 17 28 29.65 1004 10 16 0.00 0.00
8:15 pm 20:15 Partly Cloudy 70 21.1 49 9.5 48 48 SE 15 24 29.65 1004 10 16 0.00 0.00
8:35 pm 20:35 Clear 69 20.4 50 10 51 51 SSE 17 28 29.67 1005 10 16 0.00 0.00
8:55 pm 20:55 Clear 67 19.5 50 10.2 55 55 SSE 20 31 29.68 1005 10 16 0.00 0.00
9:15 pm 21:15 Clear 66 19 51 10.5 58 58 SSE 21 33 29.68 1005 10 16 0.00 0.00
9:35 pm 21:35 Clear 66 18.8 51 10.6 59 59 SSE 22 35 29.69 1006 10 16 0.00 0.00
9:55 pm 21:55 Clear 65 18.6 51 10.5 59 59 SSE 23 37 29.70 1006 10 16 0.00 0.00
10:15 pm 22:15 Clear 65 18.3 51 10.5 61 61 S 21 33 29.71 1006 10 16 0.00 0.00
10:35 pm 22:35 Clear 64 18 51 10.6 62 62 S 21 33 29.71 1006 10 16 0.00 0.00
10:55 pm 22:55 Clear 64 17.5 51 10.7 65 65 S 18 30 29.71 1006 10 16 0.00 0.00
11:15 pm 23:15 Clear 64 17.5 52 11.1 66 66 S 22 35 29.71 1006 10 16 0.00 0.00
11:35 pm 23:35 Clear 63 17 52 11 68 68 S 22 35 29.72 1006 10 16 0.00 0.00
11:55 pm 23:55 Clear 62 16.7 52 11 69 69 S 18 30 29.72 1006 10 16 0.00 0.00

Powered by AerisWeather